map of KSPB home
Great Circle Mapper logo
KSPB - Airport
Location
City:  Scappoose, Oregon, United States
Name:Scappoose Industrial Airpark
ICAO:KSPB
FAA:SPB

Details
Type:Airport (Airfield)
Use:Public/Civil
Latitude:4546'16"N (45.771028)
Longitude:12251'43"W (-122.861832)
Datum:WGS 1984
Elevation:58 ft (18 m)
Variation:15.7E (WMM2010 magnetic declination)
Runways:1
Longest:5100 × 100 ft (1554 × 30.5 m), paved

Time
Time Zone:UTC-8 (DST-7)
Local Time:

Weather
METAR:KSPB 230853Z AUTO 00000KT 4SM BR FEW001 SCT031 03/02 A3026 RMK AO2 RAB22E38 SLP247 P0001 60001 T00280022 51022

Related Locations
Nearby:
Farthest:FTU: 10894 mi / 17532 km
Tolagnaro [Maurillac (Fort Dauphin)], MG

Find:

   beyond  
but within

Other Information
Maps:
NOTAMs:
Links:
Sources:

  
flag of United States
flag of Oregon
  

Sectional Chart

Flight Planning
at skyvector.com

Satellite Image

Google Maps Satellite View

 

Copyright © 2004-2014 Karl L. Swartz. All rights reserved.
The Great Circle Mapper name and logo are trademarks of the Great Circle Mapper.
All other trademarks mentioned herein belong to their respective owners.
Please see credits for attibutions and further copyright information.

  Follow gcmap on Facebook Follow gcmap on Twitter

hCard Microformat

Geo Microformat